TimeCDT,TemperatureF,Dew PointF,Humidity,Sea Level PressureIn,VisibilityMPH,Wind Direction,Wind SpeedMPH,Gust SpeedMPH,PrecipitationIn,Events,Conditions,WindDirDegrees,DateUTC
12:11 AM,64.4,62.6,94,29.86,7.0,Calm,Calm,-,N/A,,Clear,0,2013-08-20 05:11:00
12:31 AM,64.4,62.6,94,29.86,10.0,SSE,3.5,-,N/A,,Clear,160,2013-08-20 05:31:00
12:51 AM,66.2,64.4,94,29.86,10.0,South,3.5,-,N/A,,Clear,170,2013-08-20 05:51:00
1:11 AM,66.2,64.4,94,29.86,10.0,South,3.5,-,N/A,,Clear,170,2013-08-20 06:11:00
1:31 AM,68.0,66.2,94,29.86,10.0,South,3.5,-,N/A,,Clear,170,2013-08-20 06:31:00
1:51 AM,68.0,66.2,94,29.86,10.0,South,3.5,-,N/A,,Clear,170,2013-08-20 06:51:00
2:12 AM,68.0,66.2,94,29.85,10.0,South,4.6,-,N/A,,Clear,170,2013-08-20 07:12:00
2:31 AM,68.0,66.2,94,29.85,10.0,South,4.6,-,N/A,,Clear,170,2013-08-20 07:31:00
2:51 AM,68.0,66.2,94,29.85,10.0,SSE,3.5,-,N/A,,Clear,160,2013-08-20 07:51:00
3:11 AM,66.2,64.4,94,29.85,10.0,Calm,Calm,-,N/A,,Clear,0,2013-08-20 08:11:00
3:31 AM,66.2,64.4,94,29.84,7.0,Calm,Calm,-,N/A,,Clear,0,2013-08-20 08:31:00
3:51 AM,64.4,62.6,94,29.84,4.0,Calm,Calm,-,N/A,,Clear,0,2013-08-20 08:51:00
4:11 AM,62.6,60.8,94,29.84,2.0,Calm,Calm,-,N/A,,Clear,0,2013-08-20 09:11:00
4:31 AM,62.6,60.8,94,29.84,4.0,Calm,Calm,-,N/A,,Clear,0,2013-08-20 09:31:00
4:51 AM,60.8,60.8,100,29.84,3.0,Calm,Calm,-,N/A,,Clear,0,2013-08-20 09:51:00
5:11 AM,62.6,60.8,94,29.84,4.0,Calm,Calm,-,N/A,,Clear,0,2013-08-20 10:11:00
5:31 AM,64.4,62.6,94,29.84,5.0,Calm,Calm,-,N/A,,Clear,0,2013-08-20 10:31:00
5:51 AM,64.4,64.4,100,29.84,5.0,South,3.5,-,N/A,,Clear,170,2013-08-20 10:51:00
6:11 AM,64.4,64.4,100,29.84,4.0,Calm,Calm,-,N/A,,Clear,0,2013-08-20 11:11:00
6:31 AM,64.4,64.4,100,29.85,4.0,SSE,3.5,-,N/A,,Clear,160,2013-08-20 11:31:00
6:51 AM,66.2,64.4,94,29.85,4.0,South,3.5,-,N/A,,Clear,170,2013-08-20 11:51:00
7:11 AM,66.2,64.4,94,29.86,5.0,Calm,Calm,-,N/A,,Clear,0,2013-08-20 12:11:00
7:31 AM,66.2,66.2,100,29.86,5.0,South,4.6,-,N/A,,Clear,170,2013-08-20 12:31:00
7:51 AM,68.0,66.2,94,29.86,7.0,SSE,6.9,-,N/A,,Clear,160,2013-08-20 12:51:00
8:11 AM,69.8,66.2,88,29.86,7.0,South,5.8,-,N/A,,Scattered Clouds,170,2013-08-20 13:11:00
8:31 AM,69.8,68.0,94,29.86,7.0,South,5.8,-,N/A,,Scattered Clouds,180,2013-08-20 13:31:00
8:51 AM,71.6,69.8,94,29.85,7.0,South,5.8,-,N/A,,Scattered Clouds,180,2013-08-20 13:51:00
9:11 AM,73.4,69.8,88,29.84,10.0,SSE,3.5,-,N/A,,Scattered Clouds,160,2013-08-20 14:11:00
9:31 AM,75.2,71.6,89,29.84,10.0,South,6.9,-,N/A,,Scattered Clouds,170,2013-08-20 14:31:00
9:51 AM,77.0,71.6,83,29.84,10.0,South,4.6,-,N/A,,Scattered Clouds,170,2013-08-20 14:51:00
10:11 AM,78.8,71.6,78,29.83,10.0,South,8.1,-,N/A,,Clear,190,2013-08-20 15:11:00
10:31 AM,80.6,71.6,74,29.83,10.0,South,4.6,-,N/A,,Clear,180,2013-08-20 15:31:00
10:51 AM,80.6,71.6,74,29.83,10.0,South,8.1,-,N/A,,Clear,170,2013-08-20 15:51:00
11:11 AM,82.4,71.6,70,29.83,10.0,South,10.4,-,N/A,,Clear,190,2013-08-20 16:11:00
11:31 AM,82.4,71.6,70,29.83,10.0,South,8.1,-,N/A,,Clear,180,2013-08-20 16:31:00
11:51 AM,84.2,71.6,66,29.83,10.0,South,8.1,-,N/A,,Clear,180,2013-08-20 16:51:00
12:11 PM,84.2,71.6,66,29.82,10.0,SSW,6.9,-,N/A,,Scattered Clouds,210,2013-08-20 17:11:00
12:31 PM,86.0,71.6,62,29.82,10.0,SSW,4.6,-,N/A,,Scattered Clouds,210,2013-08-20 17:31:00
12:51 PM,86.0,71.6,62,29.82,10.0,SSW,4.6,17.3,N/A,,Clear,200,2013-08-20 17:51:00
1:11 PM,87.8,71.6,58,29.81,10.0,South,9.2,-,N/A,,Scattered Clouds,180,2013-08-20 18:11:00
1:31 PM,87.8,69.8,55,29.81,10.0,South,8.1,-,N/A,,Clear,190,2013-08-20 18:31:00
1:51 PM,87.8,69.8,55,29.80,10.0,SSW,4.6,-,N/A,,Clear,210,2013-08-20 18:51:00
2:11 PM,87.8,69.8,55,29.80,10.0,South,5.8,16.1,N/A,,Clear,180,2013-08-20 19:11:00
2:31 PM,89.6,69.8,52,29.80,10.0,South,6.9,-,N/A,,Clear,180,2013-08-20 19:31:00
2:51 PM,89.6,69.8,52,29.79,10.0,South,5.8,-,N/A,,Scattered Clouds,190,2013-08-20 19:51:00
3:11 PM,87.8,68.0,52,29.79,10.0,South,10.4,16.1,N/A,,Scattered Clouds,170,2013-08-20 20:11:00
3:31 PM,89.6,68.0,49,29.79,10.0,SW,6.9,16.1,N/A,,Scattered Clouds,220,2013-08-20 20:31:00
3:51 PM,89.6,66.2,46,29.79,10.0,SW,8.1,-,N/A,,Clear,230,2013-08-20 20:51:00
4:11 PM,89.6,66.2,46,29.78,10.0,SSW,10.4,-,N/A,,Clear,200,2013-08-20 21:11:00
4:31 PM,89.6,66.2,46,29.78,10.0,South,6.9,-,N/A,,Scattered Clouds,190,2013-08-20 21:31:00
4:51 PM,87.8,69.8,55,29.78,10.0,South,5.8,-,N/A,,Mostly Cloudy,190,2013-08-20 21:51:00
5:11 PM,89.6,68.0,49,29.78,10.0,SSW,9.2,-,N/A,,Scattered Clouds,200,2013-08-20 22:11:00
5:31 PM,87.8,66.2,49,29.78,10.0,South,6.9,-,N/A,,Scattered Clouds,190,2013-08-20 22:31:00
5:51 PM,87.8,68.0,52,29.78,10.0,SSW,6.9,-,N/A,,Scattered Clouds,200,2013-08-20 22:51:00
6:11 PM,87.8,68.0,52,29.78,10.0,SSW,4.6,-,N/A,,Scattered Clouds,200,2013-08-20 23:11:00
6:31 PM,87.8,68.0,52,29.77,10.0,SSW,4.6,-,N/A,,Clear,210,2013-08-20 23:31:00
6:51 PM,87.8,68.0,52,29.77,10.0,SSW,3.5,-,N/A,,Clear,200,2013-08-20 23:51:00
7:11 PM,86.0,69.8,58,29.77,10.0,Calm,Calm,-,N/A,,Clear,0,2013-08-21 00:11:00
7:31 PM,82.4,69.8,66,29.77,10.0,South,3.5,-,N/A,,Clear,170,2013-08-21 00:31:00
7:51 PM,78.8,68.0,69,29.78,10.0,Calm,Calm,-,N/A,,Clear,0,2013-08-21 00:51:00
8:11 PM,75.2,66.2,73,29.78,10.0,Calm,Calm,-,N/A,,Clear,0,2013-08-21 01:11:00
8:31 PM,73.4,66.2,78,29.78,10.0,Calm,Calm,-,N/A,,Clear,0,2013-08-21 01:31:00
8:51 PM,71.6,64.4,78,29.78,10.0,Calm,Calm,-,N/A,,Clear,0,2013-08-21 01:51:00
9:11 PM,71.6,64.4,78,29.78,10.0,Calm,Calm,-,N/A,,Clear,0,2013-08-21 02:11:00
9:31 PM,71.6,66.2,83,29.78,10.0,Calm,Calm,-,N/A,,Clear,0,2013-08-21 02:31:00
9:51 PM,73.4,69.8,88,29.77,10.0,South,4.6,-,N/A,,Clear,170,2013-08-21 02:51:00
10:11 PM,75.2,69.8,83,29.77,10.0,South,5.8,-,N/A,,Clear,170,2013-08-21 03:11:00
10:31 PM,75.2,69.8,83,29.76,10.0,South,6.9,-,N/A,,Clear,180,2013-08-21 03:31:00
10:51 PM,75.2,69.8,83,29.74,10.0,South,8.1,-,N/A,,Clear,170,2013-08-21 03:51:00
11:11 PM,75.2,69.8,83,29.75,10.0,South,6.9,-,N/A,,Clear,180,2013-08-21 04:11:00
11:31 PM,75.2,69.8,83,29.76,10.0,South,6.9,-,N/A,,Clear,170,2013-08-21 04:31:00
11:51 PM,75.2,69.8,83,29.76,10.0,South,6.9,-,N/A,,Clear,180,2013-08-21 04:51:00